CZ-6A DEB, 55874

Orbit data source: Space-Track

CZ-6A DEB, 55874 is space debris in SSO originally from a launch on Fri, 11 Nov 2022 UTC launched from the Taiyaun Space Center, China (TSC). Debris objects in space refer to the collection of defunct objects orbiting the Earth. Examples of debris include non-operational satellites, rocket bodies, and fragments generated from explosions, collisions, or faulty payload assembly.

Loading next visibility...
Identifier
55874, 2022-151ZW
Orbit
SSO
Country
Flag of CNCN / PRC
Related business
Manufacturer
SAST
Mission
Spacecraft
Bus & Motor
Unknown
Mass
Unknown
Launch date (UTC)
2022-11-11 (4 years ago)
Launch vehicle
Unknown
Launch site
Taiyaun Space Center, China (TSC)
Object type
Payload
Rocket body
Debris
Shape & HBR
Unknown shape, 1.1 m
Radar Cross Section
Medium (>0.1 m² and <1 m²)

Expand to show TLE details & history
Last TLE update: 14 hours ago

TLE from 14 hours ago
0 CZ-6A DEB
1 55874U 22151ZW  26236.41743289  .00001838  00000-0  95769-3 0  9996
2 55874  98.8363 230.4201 0065077 146.2666 214.2674 14.14708195182452
Epoch: 2026-08-24T10:01Z
TLE epoch observation values (Epoch: 2026-08-24T10:01:06.201Z)
Latitude
-0.00006°
Longitude
107.44484°
Altitude
885.15 km
Speed
7.39 km/s
True Right ascension
15h 21m 40s
True Declination
0° 00' 00"
Sunlit
Object was in daylight at epoch
Visualization orbit readout
Latitude
Unknown
Longitude
Unknown
Altitude
Unknown
Speed
Unknown
Apparent Right ascension
Unknown
Apparent Declination
Unknown
Sunlit
N/A
Visualization observer readout
Local Sidereal Time
15:04:54
Azimuth
Unknown
Elevation
Unknown
Doppler factor
Unknown
Orbital elements
Apogee altitude
887.453 km
Perigee altitude
793.5 km
Semi-major axis
7,218.614 km
Eccentricity
0.00651
Inclination
98.8363°
RAAN
230.4201°
Arg. of periapsis
146.2666°
True anomaly
213.85032°
Mean anomaly
214.2674°
Eccentric anomaly
214.05858°
Mean motion
3.53885 °/min
Orbital period
101.73 mins
BSTAR
0.00095769
Loading maneuver chart data...
Computing Atmospheric mass density...
Loading historical data...
Loading historical data...
Loading historical data...
Loading historical data...
Loading historical data...
Loading historical data...
Loading historical data...

Documentation

Showing up to 5 results
|